DLH83D EDDS-LIRQ

Flight info

Callsign DLH83D
Flight time N/A
Altitude 31000
Route ROTWE5B ROTWE Y126 TUBLO N850 ODINA/N0402F190 M727 SRN L153 BEROK
Aircraft A320/M-SDE3FGHIRWY/LB1

Departure

Time 2026-05-05 15:36
Airport Stuttgart Airport (EDDS)

Arrival

Time N/A
Airport Florence Airport, Peretola (LIRQ)
Time Latitude Longitude Altitude Speed Heading
2026-05-05 15:10 48.68874 9.19363 1287 ft 0 kts 345°
2026-05-05 15:27 48.68862 9.19368 1285 ft 4 kts 347°
2026-05-05 15:27 48.68835 9.19375 1289 ft 4 kts 357°
2026-05-05 15:27 48.68810 9.19372 1288 ft 4 kts 32°
2026-05-05 15:27 48.68800 9.19356 1288 ft 0 kts 73°
2026-05-05 15:29 48.68811 9.19415 1285 ft 12 kts 73°
2026-05-05 15:30 48.68836 9.19540 1287 ft 14 kts 74°
2026-05-05 15:30 48.68865 9.19699 1289 ft 16 kts 75°
2026-05-05 15:30 48.68874 9.19861 1288 ft 16 kts 126°
2026-05-05 15:30 48.68828 9.19990 1285 ft 16 kts 75°
2026-05-05 15:31 48.68861 9.20162 1290 ft 20 kts 74°
2026-05-05 15:31 48.68905 9.20395 1285 ft 24 kts 73°
2026-05-05 15:31 48.68954 9.20654 1277 ft 27 kts 74°
2026-05-05 15:31 48.69008 9.20939 1270 ft 29 kts 74°
2026-05-05 15:32 48.69038 9.21098 1268 ft 22 kts 74°
2026-05-05 15:32 48.69100 9.21423 1259 ft 26 kts 74°
2026-05-05 15:32 48.69135 9.21606 1265 ft 28 kts 74°
2026-05-05 15:32 48.69190 9.21897 1250 ft 30 kts 74°
2026-05-05 15:33 48.69241 9.22163 1247 ft 24 kts 74°
2026-05-05 15:33 48.69288 9.22418 1238 ft 27 kts 74°
2026-05-05 15:33 48.69343 9.22703 1228 ft 29 kts 73°
2026-05-05 15:33 48.69404 9.23012 1220 ft 31 kts 74°
2026-05-05 15:34 48.69421 9.23168 1217 ft 3 kts 170°
2026-05-05 15:34 48.69381 9.23170 1217 ft 13 kts 175°
2026-05-05 15:34 48.69267 9.23196 1218 ft 17 kts 168°
2026-05-05 15:34 48.69201 9.23228 1218 ft 7 kts 174°
2026-05-05 15:35 48.69171 9.23160 1219 ft 9 kts 255°
2026-05-05 15:35 48.69128 9.22918 1225 ft 57 kts 253°
2026-05-05 15:35 48.68848 9.21458 1264 ft 153 kts 253°
2026-05-05 15:35 48.68636 9.20366 1575 ft 165 kts 254°
2026-05-05 15:36 48.68326 9.18710 2503 ft 162 kts 254°
2026-05-05 15:36 48.68021 9.17042 3070 ft 169 kts 254°
2026-05-05 15:36 48.67685 9.15224 3293 ft 191 kts 253°
2026-05-05 15:36 48.67302 9.13175 3541 ft 212 kts 254°
2026-05-05 15:37 48.66879 9.10931 3868 ft 234 kts 253°
2026-05-05 15:37 48.66407 9.08455 4387 ft 251 kts 253°
2026-05-05 15:37 48.65918 9.05893 5257 ft 255 kts 252°
2026-05-05 15:37 48.65421 9.03305 6179 ft 257 kts 252°
2026-05-05 15:38 48.64917 9.00708 7062 ft 258 kts 250°
2026-05-05 15:38 48.64074 8.98325 7881 ft 260 kts 229°
2026-05-05 15:38 48.62778 8.96397 8754 ft 263 kts 224°
2026-05-05 15:38 48.61441 8.94501 9620 ft 265 kts 223°
2026-05-05 15:39 48.60095 8.92600 10252 ft 275 kts 223°
2026-05-05 15:39 48.58638 8.90540 10503 ft 298 kts 223°
2026-05-05 15:39 48.57066 8.88317 10695 ft 321 kts 223°
2026-05-05 15:39 48.55379 8.85929 10875 ft 342 kts 224°
2026-05-05 15:40 48.53623 8.83443 11379 ft 350 kts 224°
2026-05-05 15:40 48.51808 8.80882 12030 ft 355 kts 224°
2026-05-05 15:40 48.49993 8.78323 12706 ft 360 kts 224°
2026-05-05 15:40 48.48153 8.75729 13355 ft 364 kts 224°
2026-05-05 15:41 48.46317 8.73138 13925 ft 368 kts 224°
2026-05-05 15:41 48.44443 8.70494 14502 ft 372 kts 224°
2026-05-05 15:41 48.42545 8.67818 15067 ft 375 kts 223°
2026-05-05 15:41 48.40631 8.65121 15605 ft 379 kts 223°
2026-05-05 15:42 48.38698 8.62400 16153 ft 382 kts 223°
2026-05-05 15:42 48.36742 8.59653 16674 ft 387 kts 222°
2026-05-05 15:42 48.34763 8.56882 17208 ft 391 kts 222°
2026-05-05 15:42 48.32764 8.54090 17702 ft 394 kts 222°